Theta_e
304 293 291 291 293 295 297 297 297 297 297 296 295 293 292 292 293 296 297 295 295 292 291 292 293 293 294 296 297 298 298 298 297 297 297 298 298 299 299 299 299 299 299 300 300 300 299 299 299 297 296 296 295 295 295 295 294 294 294 293 292 294 293 293 292 292 291 290 289 289 290 289 290 290 290 290 290 290 290 291 291 291 290 290 290 289
304 293 293 296 297 297 298 298 298 297 297 295 294 292 292 292 291 296 296 292 293 291 289 292 292 292 294 295 296 297 297 296 297 297 297 298 298 299 299 299 299 299 301 299 297 298 297 297 296 295 294 294 294 293 294 294 294 294 293 293 293 293 293 293 292 292 291 291 290 290 289 289 290 289 289 288 289 290 291 290 290 290 289 290 289 289
293 292 295 298 299 299 298 298 297 296 295 295 293 292 290 292 294 296 297 291 292 291 288 291 290 291 293 295 296 296 297 298 298 298 298 298 298 298 299 299 298 299 296 296 296 297 297 296 295 293 292 293 294 293 294 293 293 293 293 293 292 292 292 292 292 292 291 291 291 291 290 290 289 289 290 289 289 290 290 290 290 290 289 290 289 288
289 293 297 300 299 297 296 296 295 294 295 292 290 288 288 292 290 288 291 292 290 290 287 289 289 290 293 295 296 297 298 298 299 299 299 300 298 298 299 299 298 298 296 295 295 295 295 295 294 291 290 291 290 290 289 290 292 292 293 293 292 292 292 292 292 292 291 291 291 291 291 291 290 288 290 289 289 289 289 288 290 289 289 289 288 288
292 297 299 300 298 297 295 295 293 291 291 292 292 291 290 291 293 292 291 290 291 291 291 288 288 289 291 291 293 296 298 297 298 297 298 299 300 300 300 300 301 299 296 295 295 294 293 293 292 292 291 289 290 289 290 290 291 293 292 293 292 292 291 291 292 292 291 291 290 289 289 289 288 288 287 287 286 287 288 288 288 288 288 289 288 288
295 299 299 296 296 296 295 293 293 293 290 291 293 293 293 293 292 293 294 293 288 288 290 291 284 285 289 292 293 294 293 294 295 295 296 297 298 299 297 298 298 301 298 297 296 294 293 293 292 290 288 289 289 289 290 290 291 291 292 292 292 291 291 291 291 291 292 291 289 288 287 285 285 285 285 285 285 286 287 287 288 288 288 288 287 287
296 298 298 296 295 294 294 292 293 295 291 287 290 295 296 294 293 292 292 290 282 282 289 291 282 282 288 290 292 292 291 293 293 294 296 296 298 298 298 298 297 300 298 297 296 295 293 292 291 290 289 289 289 289 289 289 289 289 291 291 291 291 290 291 291 291 291 290 289 288 288 287 286 285 285 286 287 287 287 288 287 288 288 288 287 286
296 293 293 296 295 293 292 291 294 295 291 288 290 290 294 292 290 291 291 289 286 290 291 291 286 282 284 289 292 293 292 291 292 294 295 296 296 297 297 298 298 300 299 298 296 295 294 293 292 291 290 289 290 289 288 288 288 288 289 289 291 290 290 290 291 291 291 290 289 288 287 287 286 286 286 287 287 288 288 287 287 287 286 287 287 286
296 293 292 293 291 288 291 294 298 296 292 290 290 293 291 293 292 291 289 285 285 283 282 284 288 282 284 287 292 293 290 291 292 293 295 296 296 297 297 299 297 300 299 298 297 295 293 293 292 291 289 288 287 287 288 288 288 288 288 288 289 288 289 290 290 291 290 290 289 288 287 286 287 286 287 287 288 287 287 286 285 285 286 286 286 286
297 295 296 296 291 289 293 286 290 296 292 292 291 293 292 292 290 290 285 285 283 281 280 283 287 281 283 288 287 289 290 290 292 293 295 296 296 296 297 298 298 299 297 297 298 296 294 293 292 290 288 286 287 287 288 286 287 287 287 288 288 287 288 289 289 290 289 288 288 287 287 286 287 287 287 286 286 285 285 285 285 285 285 285 285 285
295 293 296 297 293 295 287 287 290 289 292 292 293 292 290 289 286 285 285 284 281 279 282 286 287 285 281 286 287 287 289 291 292 292 294 295 296 297 297 298 300 299 298 294 296 294 293 291 290 287 287 286 285 286 286 287 287 287 288 287 287 287 287 288 288 288 287 287 287 287 286 286 287 287 286 285 284 284 284 284 284 284 284 284 284 284
293 293 291 293 297 292 292 289 291 291 292 293 287 285 286 284 283 282 282 283 277 279 283 285 287 287 279 281 288 292 292 293 293 293 294 294 296 297 297 299 300 298 297 295 291 290 290 287 286 286 285 285 285 285 286 286 286 287 287 287 287 286 286 287 287 287 287 286 286 286 286 286 287 287 285 285 284 284 284 284 284 283 283 283 283 283
288 290 292 294 295 295 290 290 287 289 289 290 285 285 281 279 281 278 279 275 276 279 281 285 287 283 283 288 289 292 291 293 294 295 295 295 295 295 298 299 298 293 292 291 290 289 288 288 287 286 285 284 284 286 286 286 286 286 286 287 287 286 286 286 286 286 286 286 285 286 285 286 287 286 285 284 284 284 283 283 283 283 282 282 282 282
287 290 292 293 291 294 294 287 284 282 284 286 285 282 280 276 276 274 276 279 281 283 285 284 287 284 287 289 294 294 293 294 295 294 293 294 295 295 299 297 294 290 290 290 289 289 288 287 287 286 285 285 285 285 285 285 286 286 287 286 286 286 286 286 286 286 285 285 285 285 285 285 286 285 284 284 284 284 283 283 283 282 282 282 281 281
282 285 289 291 286 294 293 292 291 288 284 286 288 286 284 282 278 273 277 277 279 281 282 283 280 278 277 284 293 296 298 297 295 295 294 295 295 294 293 293 290 288 287 289 289 289 288 287 286 286 285 285 285 285 285 285 285 285 286 286 286 286 286 286 286 285 285 285 284 284 284 285 285 284 284 283 283 283 282 282 281 281 281 281 281 281
286 286 291 296 293 294 291 294 295 291 286 285 288 289 283 283 285 282 284 282 281 279 279 279 279 282 287 290 292 293 294 296 296 295 295 295 293 293 291 293 289 288 288 288 287 287 287 287 286 286 285 285 284 284 285 285 285 285 286 286 286 286 286 286 285 285 285 285 284 284 284 284 284 284 283 282 283 282 282 281 281 280 280 280 280 281
285 283 292 293 293 291 290 294 294 295 282 284 287 282 286 290 288 283 284 284 281 279 280 284 283 286 290 293 294 294 294 293 293 293 294 295 294 292 292 291 288 287 287 287 287 287 287 286 286 287 286 285 285 284 284 285 285 285 285 285 285 285 285 285 285 285 285 284 284 283 283 283 283 283 283 282 281 281 281 280 280 280 279 279 279 280
285 287 291 290 287 289 288 289 292 292 292 285 281 284 291 291 288 284 277 281 278 276 280 284 281 283 283 281 288 290 291 292 291 293 295 295 294 290 292 291 291 289 287 286 287 287 287 288 288 287 286 286 285 285 284 284 285 286 286 285 285 285 285 285 285 285 284 284 283 283 283 283 283 283 282 281 281 281 280 279 279 279 279 278 279 279
292 284 288 288 288 289 290 291 290 293 292 285 285 291 285 279 278 282 281 274 274 274 277 281 282 283 285 285 288 286 288 290 292 293 294 294 291 291 290 289 289 288 287 286 286 287 287 287 287 287 287 286 285 285 284 284 285 285 285 285 285 285 285 285 285 284 284 284 284 284 283 282 282 282 281 281 280 280 280 279 278 278 278 278 278 278
290 285 285 285 287 289 288 287 281 283 289 290 289 285 288 282 280 279 281 281 279 277 277 278 281 280 287 287 289 288 289 290 292 292 292 292 292 292 290 289 289 288 289 288 287 287 288 288 287 287 286 286 285 284 284 283 284 284 284 284 284 284 284 284 284 284 283 283 283 283 282 282 281 281 281 280 279 279 278 278 277 277 277 277 278 277
287 289 282 285 284 288 281 284 283 286 283 282 282 280 284 282 284 282 283 282 280 277 277 276 276 282 287 289 289 290 291 291 292 292 292 291 291 291 289 291 290 289 289 289 289 288 288 287 287 286 286 285 284 283 283 283 283 284 284 284 284 284 284 283 284 283 283 283 283 282 282 281 280 280 279 278 278 278 277 277 277 276 276 277 276 276
287 285 284 283 280 281 285 289 289 290 290 287 286 284 286 283 280 279 279 285 282 280 277 277 277 284 291 291 291 291 292 293 292 291 292 291 291 289 290 288 289 289 289 290 290 289 289 288 287 286 285 283 284 283 283 283 283 282 283 284 284 284 284 283 283 283 283 283 283 282 281 281 280 279 279 278 277 277 276 276 276 276 276 275 275 275
293 287 286 284 286 287 289 292 293 292 292 291 289 286 289 286 285 282 278 282 281 281 284 283 279 282 291 291 291 291 291 291 291 291 292 291 289 288 290 289 289 290 291 291 290 289 289 288 287 287 285 284 284 284 283 282 283 283 283 283 284 284 284 284 283 283 283 282 282 282 281 280 279 278 278 277 277 276 276 276 275 275 275 274 274 275
293 284 283 285 288 288 291 292 289 290 291 287 288 288 285 284 286 284 284 284 283 283 281 282 279 282 291 290 291 290 290 292 292 292 292 292 289 288 289 289 289 289 290 289 289 289 289 288 286 285 284 284 284 283 283 283 283 283 283 283 284 283 284 283 283 283 282 282 281 281 280 279 278 277 277 277 276 276 275 275 275 275 274 274 274 274
287 285 286 282 281 283 285 287 288 286 286 283 284 287 289 290 288 288 287 285 283 284 284 282 276 282 291 291 292 293 293 293 292 288 288 290 287 286 287 288 289 290 291 290 289 289 287 284 284 285 285 285 284 284 283 283 283 283 283 283 283 283 283 283 283 282 282 281 280 280 280 278 278 277 276 276 276 275 275 275 275 275 274 274 273 273
288 286 284 279 276 274 274 276 278 281 281 283 286 287 289 288 287 285 283 284 280 283 285 281 281 286 292 293 291 292 292 293 294 294 289 287 287 288 287 288 290 291 291 291 291 286 285 286 285 284 284 284 284 283 283 283 283 283 282 283 283 283 282 282 282 282 281 281 280 279 279 278 277 277 276 276 276 275 275 275 274 274 274 273 273 273
286 287 287 285 282 280 282 284 288 287 284 281 283 284 285 287 288 288 287 284 281 284 283 284 285 285 287 290 291 292 293 292 293 294 293 293 292 291 288 290 290 290 290 290 290 289 285 283 284 284 284 284 284 283 283 283 282 282 282 282 282 283 282 282 281 281 281 280 280 279 278 278 277 277 276 276 276 275 275 274 274 274 273 273 273 272
284 284 286 286 286 286 288 287 289 289 285 286 286 285 285 285 286 286 284 282 287 284 279 286 287 285 286 289 290 291 292 293 293 293 294 294 293 292 289 289 291 288 287 287 286 286 287 286 285 284 284 284 283 283 283 282 283 282 282 282 282 282 282 282 281 280 280 279 279 278 278 277 277 276 276 276 275 275 274 274 273 273 273 272 272 271
285 283 286 286 285 287 288 289 289 288 288 287 287 287 286 287 286 283 284 286 286 283 280 286 287 285 287 289 291 292 293 293 293 294 295 294 293 293 289 286 287 288 287 287 288 289 288 287 286 286 285 285 284 282 282 282 282 282 282 282 282 282 282 281 280 279 279 279 278 278 278 277 276 276 276 275 275 274 273 273 273 272 272 272 271 271
287 283 286 286 285 286 287 287 288 287 287 287 286 287 288 287 286 286 286 287 286 285 286 287 287 286 289 290 292 293 294 294 294 295 294 293 293 293 292 289 288 287 287 288 289 289 289 289 289 288 287 285 284 283 283 282 282 282 282 282 282 282 281 280 280 279 279 278 278 278 277 276 276 275 275 274 274 273 273 272 272 271 271 271 271 270
288 283 289 286 283 283 286 287 287 287 286 284 286 287 287 287 287 286 286 286 286 285 287 286 285 285 290 293 292 294 295 295 294 293 293 293 293 292 292 290 287 286 286 288 288 288 289 290 290 290 288 287 285 284 284 283 283 282 282 282 282 281 281 280 279 279 278 278 278 277 276 276 275 275 274 274 273 272 272 272 271 270 270 269 269 268
287 284 289 286 282 281 285 285 285 286 285 284 284 285 285 285 284 285 285 287 285 284 285 285 283 284 289 292 293 293 293 292 292 293 293 293 293 292 292 291 288 288 290 291 291 290 290 290 289 289 289 289 287 285 284 283 283 282 282 282 281 281 280 279 279 278 278 277 277 276 276 275 274 274 273 272 272 272 271 270 269 269 268 267 267 267
285 284 283 283 280 280 285 285 284 284 283 280 281 285 286 287 287 288 289 289 288 288 285 282 283 289 291 292 291 291 292 292 292 292 292 293 293 293 293 292 292 291 291 292 291 290 290 290 290 290 289 289 289 287 285 285 283 282 282 282 281 280 279 279 278 278 277 277 276 275 275 274 273 272 272 271 271 270 269 268 268 268 267 267 267 267
286 285 284 285 280 280 284 284 285 281 274 276 287 290 289 286 287 285 285 287 289 290 287 289 289 291 291 291 290 291 292 292 293 294 295 294 294 294 294 292 293 292 291 292 292 291 290 290 290 290 290 290 290 289 287 285 284 284 283 282 280 279 278 278 278 277 276 276 275 275 274 273 273 272 271 270 269 269 268 267 267 267 267 267 267 267
285 285 283 285 281 280 284 283 279 273 275 286 291 291 291 290 290 288 288 289 290 290 290 289 290 291 292 293 293 293 293 294 295 294 294 293 293 293 293 293 294 294 293 294 293 292 292 291 290 290 289 288 288 288 286 284 284 282 281 280 279 278 278 278 277 276 276 275 275 274 274 273 272 271 270 269 268 267 267 267 266 266 267 267 267 266
285 285 284 284 284 283 281 280 274 274 285 288 290 291 292 291 290 288 286 288 290 290 290 289 290 292 292 293 293 294 294 294 295 295 295 295 295 294 294 294 295 294 294 294 294 293 294 292 290 289 290 289 287 285 285 284 283 282 280 279 279 278 278 277 277 276 276 275 275 274 274 273 272 271 269 268 267 267 267 266 266 266 267 267 267 267
289 287 286 282 286 279 279 280 279 285 283 283 284 285 288 285 286 285 281 284 290 291 291 290 291 292 292 293 293 294 294 294 292 293 295 295 295 296 295 295 294 294 295 295 295 294 295 292 289 290 289 286 285 284 284 283 282 281 279 278 278 277 277 277 276 276 275 275 274 274 273 273 272 270 268 267 267 266 266 266 266 266 267 266 267 266
290 286 286 284 280 287 279 277 279 278 275 281 289 290 293 292 291 290 287 284 292 292 293 291 291 292 292 292 292 293 293 290 288 290 294 296 296 296 296 296 294 294 294 294 295 294 294 292 290 288 288 285 284 284 283 282 281 279 278 277 277 276 276 276 276 276 275 274 274 273 273 272 270 269 268 267 266 266 266 266 267 266 267 266 266 266
290 290 287 285 282 285 281 278 277 276 278 286 288 292 293 294 292 290 285 281 289 292 293 293 292 292 292 292 293 293 289 286 287 290 294 295 295 295 294 291 291 292 293 294 294 294 293 291 291 287 285 284 284 282 281 281 280 279 278 277 276 276 276 276 276 276 275 274 273 272 272 271 270 268 267 266 266 266 266 266 266 266 266 266 267 266
286 287 286 282 280 281 281 279 276 282 281 286 289 290 293 294 293 286 277 278 291 292 294 294 293 292 292 292 292 290 288 286 288 291 294 294 293 292 291 291 290 290 291 292 292 291 291 287 285 283 284 284 284 282 280 280 280 279 278 277 276 276 276 276 276 276 275 273 272 272 271 270 269 268 267 266 266 266 266 267 266 266 265 266 266 265
283 283 284 279 281 281 281 279 282 282 287 289 290 291 291 292 288 280 276 285 289 291 292 292 291 291 290 290 290 288 288 289 290 291 290 290 290 291 291 289 288 288 291 293 293 291 287 286 288 288 287 286 283 281 280 280 279 278 277 276 275 275 276 276 275 274 273 272 271 270 270 270 269 268 267 266 266 266 266 266 266 265 265 265 265 265
281 283 282 284 280 279 280 278 278 283 288 293 293 293 290 285 279 279 286 289 288 288 289 289 288 288 288 288 288 288 289 290 290 291 291 290 290 290 290 290 290 289 288 288 287 287 286 285 285 285 284 282 281 281 280 280 279 278 276 275 275 276 276 275 274 273 271 270 270 269 268 268 268 267 267 266 265 265 265 265 265 265 264 264 264 264
279 281 277 280 282 283 281 278 277 274 284 284 286 289 289 284 281 284 287 290 290 288 288 288 288 288 289 288 289 289 289 290 290 290 290 290 290 290 290 290 289 289 289 289 288 285 285 284 284 283 283 280 279 280 280 279 278 277 276 275 276 275 274 273 272 271 270 269 268 268 267 266 266 266 265 265 265 264 264 264 264 264 263 264 264 263
282 277 279 282 284 277 278 276 277 282 283 288 284 279 281 282 285 287 289 287 290 288 287 286 286 287 288 288 288 288 289 289 290 290 290 291 291 291 291 291 290 290 288 285 284 284 284 284 284 284 281 277 277 278 279 279 278 277 276 276 275 274 273 272 271 270 269 268 267 266 265 265 265 265 265 264 265 264 263 263 263 262 263 263 263 262
286 277 278 275 281 278 275 280 283 285 286 287 286 284 285 285 287 289 290 288 287 287 287 286 286 286 287 287 287 287 287 288 288 289 289 289 290 290 290 290 290 289 288 287 286 282 281 283 283 282 278 275 276 277 278 279 279 277 276 276 274 273 271 270 269 268 268 267 266 265 264 263 263 263 263 264 264 263 262 262 262 261 262 262 263 262
282 282 284 280 278 284 284 283 285 284 283 283 284 285 283 284 287 289 287 286 286 286 286 285 286 286 286 286 286 286 286 286 286 286 287 288 288 289 289 290 290 290 289 286 282 281 282 281 280 280 279 275 275 276 277 278 279 278 278 274 273 272 270 269 268 267 266 266 264 263 263 262 262 262 263 264 264 264 263 262 262 262 262 262 263 263
281 281 279 276 278 276 270 281 280 280 282 282 282 283 285 287 287 286 285 285 285 285 285 285 285 284 284 285 284 284 284 285 285 285 286 286 287 288 288 289 289 289 289 288 287 281 278 281 281 280 279 279 276 276 277 278 279 279 276 272 272 271 269 268 267 266 265 264 263 262 262 261 261 261 262 263 263 263 263 262 263 263 262 262 263 264
273 281 276 275 275 273 272 278 279 281 281 282 282 282 284 285 285 285 283 283 282 282 282 283 283 283 284 283 283 283 283 284 284 284 285 286 287 288 288 288 288 289 289 288 286 281 280 281 282 282 281 280 279 276 276 277 278 277 274 272 271 270 268 267 267 266 264 263 262 262 262 261 262 261 261 262 262 262 262 263 264 263 263 263 264 263
277 279 270 275 274 275 279 279 280 280 281 282 282 285 282 282 281 281 281 281 282 281 282 283 284 284 284 284 284 284 284 284 285 286 286 286 287 287 287 288 288 289 289 289 284 281 282 282 281 281 281 281 279 276 275 276 276 274 272 271 270 269 268 267 266 265 263 263 262 261 262 262 261 261 261 262 262 263 263 263 264 264 264 266 266 265
276 272 276 275 271 272 273 276 278 272 272 277 278 279 280 281 281 281 281 281 281 281 281 281 282 284 284 285 284 284 283 284 285 286 285 286 286 286 287 287 287 288 288 288 287 284 282 282 283 282 281 281 279 276 275 275 275 273 272 270 269 269 268 266 265 264 263 262 262 261 261 261 261 261 261 262 262 262 263 266 268 266 265 265 268 270
273 273 274 271 271 270 275 277 278 277 277 278 279 280 280 280 280 279 278 278 279 279 280 280 280 281 281 281 283 282 282 282 282 284 283 284 284 285 285 285 285 286 286 287 287 285 281 281 281 280 280 280 276 274 274 274 274 271 270 269 269 269 268 266 265 264 263 262 262 262 261 261 261 261 261 262 262 262 262 263 266 269 269 269 270 271
Wind_Speed
5 6 6 8 14 11 9 12 13 13 12 12 9 7 10 8 12 14 12 5 8 3 10 13 14 15 17 13 11 12 9 12 12 10 11 11 13 15 15 11 12 12 13 7 12 13 13 12 10 8 8 9 9 10 11 13 12 13 14 13 13 11 12 11 11 10 10 10 8 6 8 8 7 7 5 6 5 6 6 7 6 5 4 6 5 4
1 7 10 15 18 9 9 8 10 11 11 12 9 8 10 7 14 13 11 3 5 7 5 9 9 13 15 11 9 10 11 16 15 14 16 17 16 18 16 15 13 10 1 7 6 8 8 8 8 8 8 9 12 10 11 14 14 13 14 14 13 11 12 12 12 11 10 10 11 10 9 8 8 8 8 7 6 7 6 7 5 6 4 6 5 5
7 14 15 17 14 9 11 10 8 8 9 9 8 7 8 12 12 10 12 4 1 2 8 9 11 13 15 13 11 12 15 15 13 16 18 15 17 16 14 13 9 2 4 6 8 9 10 9 10 9 9 10 13 12 14 12 12 13 13 13 13 12 12 11 12 11 11 9 7 8 7 9 6 4 5 6 5 5 6 6 5 5 5 6 5 4
10 11 18 13 11 12 12 7 5 5 6 6 6 5 11 10 6 9 1 0 4 4 3 3 9 12 14 15 18 20 20 18 17 17 16 15 18 16 17 13 6 6 8 9 10 11 10 10 10 9 9 10 9 9 9 11 14 12 13 13 14 13 12 11 11 11 9 9 7 7 8 7 7 6 5 5 6 6 7 6 5 5 6 6 6 6
19 5 6 13 15 14 15 9 5 4 11 7 8 8 10 11 11 10 6 3 4 7 5 5 10 12 12 15 11 13 16 15 14 10 12 14 15 17 11 8 8 6 10 10 9 9 10 11 13 13 11 9 11 12 13 13 14 12 15 15 15 13 13 11 11 12 10 9 8 8 8 8 8 6 6 7 6 6 6 6 6 7 6 6 6 6
19 9 1 4 2 5 6 6 6 6 13 9 7 12 15 14 13 12 10 8 6 6 3 0 10 11 6 14 15 8 4 7 8 9 13 13 16 16 9 12 5 7 11 14 14 15 14 13 9 8 9 12 12 13 13 13 13 11 13 13 13 11 11 11 12 13 11 11 12 11 11 10 7 8 9 10 12 10 9 8 6 7 7 6 6 6
8 4 11 12 7 6 5 7 5 7 12 9 6 5 12 10 7 7 8 3 4 6 1 1 1 20 6 7 6 2 4 7 5 9 12 11 14 14 12 11 5 8 8 8 8 9 10 10 11 11 12 14 14 12 9 9 11 11 12 12 13 12 11 11 12 13 11 11 11 14 14 13 13 13 8 6 6 8 7 7 8 8 7 7 7 6
4 2 2 1 5 7 6 8 9 9 8 11 1 0 0 2 4 3 2 5 6 2 3 3 4 11 23 8 6 10 9 6 7 9 11 13 11 14 14 11 5 8 10 12 12 12 13 14 17 18 17 14 15 10 9 9 9 12 12 12 13 10 11 10 12 12 13 13 12 12 10 10 10 11 10 11 9 9 8 9 9 8 8 7 7 7
2 3 6 7 5 5 9 13 1 9 7 3 1 2 1 1 0 0 2 4 3 4 6 6 5 5 17 2 10 12 8 10 11 11 12 15 12 12 12 14 6 9 11 11 11 12 13 14 14 12 12 10 7 9 12 12 11 9 9 10 10 11 11 11 13 13 12 12 13 12 11 10 8 8 8 8 7 9 9 10 8 8 8 8 7 7
2 4 5 8 6 9 8 2 1 3 9 2 1 4 2 1 1 1 1 2 3 1 12 7 7 6 25 11 3 5 10 12 12 14 14 14 13 12 8 10 9 7 6 7 9 11 11 10 10 9 7 8 11 9 8 7 8 9 9 11 12 12 11 11 12 12 12 11 11 11 11 12 9 8 7 9 9 8 8 9 9 7 8 8 7 7
1 2 0 1 8 4 4 2 2 2 1 3 1 1 1 0 2 0 1 1 2 9 14 9 11 10 18 4 10 9 7 11 11 6 7 9 10 10 7 9 7 7 7 7 6 6 7 7 8 9 11 11 8 8 9 10 11 10 12 12 13 12 10 10 13 13 13 11 10 12 12 13 12 11 11 10 9 8 8 9 9 8 7 7 7 7
3 2 1 3 4 4 4 2 1 1 1 2 1 1 1 4 2 1 1 2 2 16 4 13 15 15 13 2 1 8 6 11 12 11 11 11 12 11 9 7 7 7 6 7 6 7 8 7 7 8 10 10 11 9 11 11 11 12 13 12 13 12 12 11 12 13 13 12 12 10 12 13 13 13 11 13 13 12 12 10 10 8 7 7 7 7
8 14 5 2 5 9 4 2 1 1 0 3 4 2 3 4 1 2 3 2 6 14 2 9 12 4 22 16 3 6 4 7 8 10 12 12 10 8 5 5 5 6 6 7 7 7 8 10 11 11 10 10 11 14 15 15 14 12 12 14 16 15 13 13 13 14 13 12 12 12 11 11 11 12 12 11 11 11 11 10 9 9 8 7 7 7
6 2 7 7 4 7 8 9 1 2 7 7 7 7 5 4 4 7 4 4 7 7 8 6 10 14 10 6 11 11 9 10 11 10 7 6 8 8 5 5 5 5 6 7 7 7 8 9 9 10 11 12 12 13 14 13 13 13 13 15 17 17 15 13 13 14 14 14 12 10 10 10 10 10 10 10 10 10 9 9 10 10 9 9 9 8
4 9 8 10 5 8 14 15 17 6 8 15 5 10 11 9 3 3 4 9 10 10 1 2 5 7 1 6 13 18 18 13 11 10 7 8 9 6 4 5 5 6 5 6 7 9 10 10 9 10 11 11 12 12 12 12 13 12 13 15 18 15 15 16 16 14 15 13 12 11 10 10 9 9 9 8 8 9 10 8 9 8 8 8 8 8
10 14 3 17 0 10 14 14 7 3 1 5 4 2 2 9 2 10 10 9 7 6 7 5 7 2 10 3 5 7 9 13 9 10 8 11 6 5 5 6 7 7 6 7 7 7 7 8 8 8 9 10 10 12 12 13 13 14 16 17 19 20 19 18 16 15 16 14 12 12 13 12 11 8 8 7 7 7 8 9 9 8 8 7 7 7
0 8 3 6 4 10 9 2 7 7 5 3 8 7 12 1 7 6 6 7 4 4 19 5 8 11 6 17 17 16 11 9 9 8 9 12 9 8 7 7 7 7 8 7 8 8 8 7 9 10 10 10 11 12 15 16 16 18 17 16 17 16 14 17 17 16 14 13 13 14 13 12 12 12 12 11 10 9 8 8 8 8 7 7 7 7
6 9 2 6 4 2 1 3 3 2 2 7 3 7 1 1 3 3 4 0 3 7 13 8 13 16 11 16 3 8 13 12 9 11 15 15 14 7 7 7 8 9 9 8 9 9 10 11 11 11 10 11 12 13 13 15 14 14 14 14 17 16 18 18 17 17 16 16 16 14 14 13 13 13 12 11 11 9 9 7 7 7 8 8 7 7
4 10 7 1 4 2 3 1 4 0 1 3 5 2 4 4 2 3 1 5 7 8 7 10 15 15 18 19 11 4 10 12 13 15 16 15 8 6 7 7 7 3 5 8 9 9 10 11 13 14 14 12 10 11 12 11 11 12 12 13 14 18 20 19 16 15 13 13 12 12 14 14 13 11 11 10 10 10 10 10 9 9 8 7 7 7
1 6 4 2 2 1 1 2 7 4 1 1 2 3 0 2 2 5 7 2 3 12 6 14 14 16 15 7 7 7 11 10 14 13 11 12 8 8 6 7 7 6 8 8 9 10 12 13 13 13 13 13 14 12 11 11 10 12 14 13 14 12 10 11 15 16 16 16 13 13 11 12 11 11 11 11 12 11 11 10 10 9 9 9 7 7
6 6 11 1 5 0 3 6 7 10 10 3 1 4 1 1 1 2 3 6 7 7 8 8 13 18 5 3 4 5 11 11 12 10 9 7 6 6 7 9 8 7 8 9 10 11 12 12 11 11 10 10 8 8 7 10 14 13 10 12 14 16 16 16 16 16 16 14 15 14 16 14 13 13 11 11 11 11 11 10 9 9 8 8 7 7
3 6 14 2 1 6 8 4 11 9 11 10 14 13 15 9 4 6 13 3 5 7 7 7 15 15 12 4 4 5 11 12 11 8 5 6 6 6 7 7 7 7 8 9 10 10 10 10 10 9 7 6 8 10 13 14 11 12 14 14 13 13 14 16 15 17 16 15 14 15 14 14 11 11 10 11 11 11 11 10 10 9 9 8 7 7
10 3 7 11 13 13 5 6 3 7 5 4 7 9 10 10 8 9 15 10 3 4 5 8 11 20 11 6 4 4 1 5 5 5 4 5 6 6 8 8 8 9 9 10 11 10 9 9 11 12 13 13 13 11 10 9 13 15 15 14 14 16 17 16 15 13 13 14 14 15 13 12 12 12 12 13 11 11 11 10 9 9 10 9 8 7
7 1 3 10 6 4 12 7 1 1 1 4 5 6 5 11 13 11 10 6 9 4 6 8 15 16 15 4 3 5 5 1 1 3 6 7 7 8 8 8 8 7 8 8 8 7 9 9 9 9 10 12 12 14 16 16 13 11 12 14 13 16 16 14 14 14 13 13 14 14 13 14 12 13 13 13 11 12 11 10 10 9 9 9 8 8
2 2 7 6 4 6 8 8 14 1 2 4 5 6 7 9 7 9 8 1 11 12 14 15 20 9 16 3 9 10 11 13 9 5 4 6 6 6 7 7 7 8 9 9 8 9 8 6 8 11 12 12 12 11 10 12 13 14 14 12 13 14 12 11 10 12 14 14 14 15 15 15 14 15 14 14 11 13 12 11 10 9 9 9 8 7
4 2 1 5 9 11 9 10 9 8 6 3 3 11 12 11 12 7 10 8 15 8 18 18 15 14 20 16 12 13 13 14 16 15 7 5 6 7 7 8 10 11 12 11 10 7 8 12 11 8 8 10 11 12 12 12 12 12 12 14 13 11 10 11 10 12 13 13 15 15 16 15 14 16 15 14 12 13 12 11 10 10 8 9 9 7
5 5 8 10 11 13 14 13 9 1 0 3 5 8 10 10 10 12 11 12 13 14 18 16 16 20 19 22 25 25 20 18 18 18 15 12 11 11 8 9 11 11 11 11 11 12 8 5 8 11 11 12 11 11 12 13 13 12 12 13 12 12 11 11 11 11 12 13 14 14 15 15 16 14 13 13 12 11 11 11 10 10 10 8 9 8
4 5 10 15 18 19 19 21 20 19 17 18 17 16 9 9 11 14 13 17 14 16 21 12 18 19 19 20 25 28 25 19 15 14 17 18 14 10 9 9 11 8 7 6 7 7 10 12 10 10 12 10 11 11 10 11 13 14 14 15 12 11 11 10 12 12 12 12 13 14 14 13 12 12 12 10 11 11 11 10 10 10 9 9 9 8
6 12 17 15 21 22 24 25 23 23 21 21 21 21 22 21 15 15 19 23 22 19 22 13 17 21 22 22 22 25 23 17 17 21 24 23 19 16 9 7 8 9 7 8 11 11 10 10 10 11 12 13 11 11 13 12 11 10 10 10 11 12 14 12 12 12 12 12 13 14 12 11 10 10 11 11 12 12 11 11 10 10 9 9 8 6
5 11 11 18 22 21 22 23 23 25 23 22 22 22 23 22 23 24 28 28 27 24 21 22 25 30 25 20 22 21 16 19 22 22 22 21 22 22 19 10 11 8 9 12 13 13 11 12 12 13 13 13 12 14 13 12 12 13 14 13 13 13 11 12 14 14 14 14 14 11 11 12 11 11 11 12 12 12 11 11 11 10 9 8 8 7
11 10 15 15 15 18 20 21 22 24 22 25 24 21 20 20 20 20 19 17 17 20 22 27 26 24 16 23 20 16 19 18 20 25 27 25 21 22 22 14 8 9 11 13 13 11 12 14 14 14 13 14 14 15 15 14 14 12 11 11 12 13 13 13 13 14 14 14 11 11 11 12 12 12 13 12 11 10 11 11 10 10 9 8 7 7
13 11 10 9 11 13 13 20 23 24 23 25 23 20 18 21 25 25 22 21 19 20 22 21 17 17 22 20 14 17 17 20 25 28 27 22 21 21 20 18 9 9 12 15 13 12 13 13 13 14 15 15 15 15 13 12 12 12 14 14 14 13 12 13 13 13 12 11 11 12 13 12 12 12 11 11 12 11 11 10 10 10 9 9 8 7
7 5 8 9 14 16 13 17 19 20 18 16 17 21 29 31 26 21 21 21 20 21 20 18 22 20 17 10 14 16 20 23 25 24 24 25 23 22 22 17 13 12 15 16 14 11 11 12 13 13 13 13 13 14 15 15 13 14 15 15 13 11 13 13 13 12 12 12 13 13 13 12 13 12 12 11 11 10 11 11 10 9 9 9 7 7
5 11 11 7 11 9 11 16 13 14 16 16 15 29 29 30 29 32 28 28 30 23 20 17 20 17 16 12 14 20 24 26 25 24 21 17 18 21 19 13 15 14 11 12 11 10 10 10 10 11 12 13 14 16 16 15 17 16 13 11 11 14 13 14 13 13 13 12 13 14 14 14 15 14 13 12 12 12 12 12 10 7 7 7 8 8
12 12 12 6 9 10 10 10 12 22 20 10 17 20 24 28 29 30 29 27 26 25 27 27 25 20 18 20 23 26 28 28 27 25 21 13 16 16 15 18 19 16 14 15 14 11 9 9 10 10 9 9 11 10 8 9 10 8 10 12 13 13 14 13 13 12 14 14 14 15 15 16 15 15 14 14 14 14 14 12 9 10 9 8 9 9
14 14 10 9 9 7 6 8 14 17 1 6 12 14 15 19 22 22 26 25 27 26 25 23 23 23 25 28 28 25 26 28 28 24 19 18 17 15 17 20 21 17 15 14 13 11 12 11 10 10 11 9 7 7 10 12 11 13 12 12 15 13 14 14 14 14 14 15 16 17 16 17 17 16 15 15 16 15 11 10 11 11 9 8 7 6
21 16 12 13 10 15 10 14 22 9 10 3 4 7 12 18 17 21 23 24 26 25 23 25 26 25 24 26 27 26 25 24 19 17 17 18 20 20 19 19 14 14 14 15 14 14 15 10 7 9 7 6 8 9 10 9 12 12 12 13 12 14 13 14 15 16 17 17 17 17 17 17 17 16 16 17 14 10 10 12 11 9 8 9 8 8
19 19 12 15 9 14 16 15 14 12 16 14 12 10 16 18 15 14 14 20 4 11 15 22 23 25 27 25 22 23 24 19 16 16 18 23 23 18 17 14 11 11 12 13 14 13 12 9 6 6 8 7 8 9 9 11 13 13 13 13 12 14 14 15 17 17 16 17 16 16 16 16 17 18 17 19 15 11 10 9 8 9 8 9 10 8
22 21 20 19 13 11 15 15 12 11 9 6 14 13 16 13 14 10 9 19 5 14 15 19 23 24 23 21 23 21 15 13 15 15 15 19 17 15 14 9 9 11 12 13 13 14 12 9 7 6 5 7 8 7 9 11 13 13 13 13 13 13 15 16 16 16 17 16 15 14 15 15 16 17 17 17 15 15 13 11 10 9 8 7 7 8
19 16 15 18 16 12 15 15 15 8 9 10 13 13 17 17 8 1 14 11 10 20 21 23 24 21 17 17 16 14 11 15 14 14 13 13 11 9 7 8 9 8 10 11 9 9 8 4 4 4 6 9 9 9 11 11 12 13 13 13 13 15 17 19 17 13 11 12 14 13 14 14 16 16 17 16 14 10 8 9 9 9 9 7 6 6
10 12 14 23 18 18 22 17 13 10 3 6 12 11 10 9 4 11 20 9 10 7 11 13 13 12 14 15 13 9 5 8 12 14 15 14 14 14 11 8 7 7 7 9 11 7 4 5 8 10 11 7 7 9 10 11 11 12 11 12 13 17 18 12 10 13 13 13 14 14 15 14 16 17 14 15 15 12 9 8 10 9 8 9 7 7
8 6 6 13 17 13 14 15 17 12 7 8 9 12 6 3 7 13 6 9 8 11 12 11 12 13 12 12 10 8 10 12 11 12 15 15 13 13 13 13 11 10 9 8 10 6 3 1 2 2 1 2 7 8 9 10 11 9 9 11 17 18 8 11 12 12 14 15 15 15 14 14 13 15 15 14 14 14 10 7 7 8 8 6 8 9
6 6 4 9 9 10 11 9 11 13 4 17 17 5 1 7 4 10 9 9 10 6 11 12 11 11 13 14 15 14 15 16 14 12 11 11 12 13 13 12 11 10 11 10 10 7 3 4 4 4 1 2 5 6 8 9 10 9 9 14 15 7 10 11 12 13 14 15 16 16 15 14 16 15 12 14 13 14 11 9 9 8 7 9 8 8
5 8 5 3 3 6 6 10 3 5 6 10 13 5 10 7 12 15 10 10 7 8 8 10 11 11 11 11 15 16 17 17 17 17 16 14 13 13 14 12 10 9 9 6 2 3 2 4 5 6 3 4 5 7 9 12 12 11 13 17 7 9 10 11 12 14 15 15 16 16 14 14 15 17 12 10 10 9 11 10 8 8 7 7 8 7
1 4 4 7 6 6 4 8 11 8 6 4 2 2 7 13 12 7 5 7 8 9 7 6 11 12 10 11 13 13 15 15 19 19 18 16 15 13 14 13 12 9 8 8 8 3 3 6 7 6 4 4 5 6 9 10 14 13 16 10 10 12 13 13 14 14 15 16 17 16 15 15 15 17 16 16 13 11 10 11 9 9 7 7 8 7
11 11 4 10 7 9 11 9 12 8 15 21 18 12 13 15 8 1 5 8 7 5 6 10 11 12 13 9 11 13 15 17 20 22 23 22 20 17 14 13 13 10 8 7 6 5 6 6 5 5 7 5 5 7 8 10 11 16 15 9 12 12 13 14 15 15 15 15 15 16 17 17 16 15 15 14 7 7 9 12 10 9 9 7 7 7
7 12 13 8 9 12 14 11 15 17 20 23 26 24 15 4 2 5 3 6 9 12 12 8 11 13 14 15 14 15 18 18 18 19 20 19 20 19 17 16 15 14 12 11 10 7 5 6 7 8 9 9 9 10 10 12 12 10 8 13 14 14 15 16 16 15 14 15 16 16 16 12 11 9 8 8 7 6 7 7 8 8 9 8 8 8
13 3 16 10 14 11 15 17 19 17 20 19 16 15 8 4 7 6 9 10 11 11 12 14 13 15 13 14 16 16 16 15 16 16 16 16 17 18 18 17 17 16 13 9 9 6 6 7 9 11 10 12 11 11 11 11 12 10 10 12 14 15 17 18 18 18 17 18 15 14 13 10 12 12 9 7 8 10 8 6 8 9 10 11 11 11
15 15 16 7 14 14 16 15 14 13 11 11 7 4 11 15 14 14 12 11 9 9 8 9 6 10 12 12 13 12 14 15 13 13 15 17 17 16 17 17 16 14 13 11 7 8 10 10 12 12 12 13 10 10 11 12 11 10 14 14 15 17 19 18 17 15 17 16 13 13 12 13 15 9 10 10 5 4 8 11 13 10 8 6 6 9
9 11 14 15 13 13 10 12 13 15 15 17 16 11 11 12 15 13 12 10 9 9 10 12 13 10 9 11 13 14 14 15 16 15 15 15 16 17 17 17 16 16 16 13 10 8 12 12 12 12 14 14 10 11 13 14 12 11 12 14 15 18 19 18 17 17 18 16 15 14 14 12 10 9 9 10 13 11 9 7 9 7 8 9 13 15
12 12 10 13 11 15 15 19 16 18 20 16 18 16 9 5 7 12 13 14 14 14 12 14 15 15 12 12 12 14 17 18 20 19 19 18 20 19 20 20 21 19 18 17 15 11 10 12 12 12 12 12 8 11 13 12 12 12 13 15 16 19 19 19 17 16 16 16 16 17 16 14 10 9 9 11 13 15 15 10 9 11 12 12 15 14
Wind_Direction
142 181 193 215 238 229 219 215 226 236 241 257 267 268 264 266 271 270 274 218 200 200 220 226 236 251 262 259 255 258 262 266 264 252 247 246 251 256 257 250 242 237 240 184 183 177 179 183 179 166 161 160 163 165 161 163 166 160 166 161 168 164 161 158 160 162 160 158 155 150 167 171 169 169 158 160 167 161 155 146 150 154 152 135 138 150
355 220 217 230 243 243 242 236 231 236 239 245 255 262 271 261 269 270 286 147 218 185 250 235 244 249 255 261 255 257 253 254 254 259 254 256 256 258 262 261 252 240 94 126 138 163 167 169 164 157 158 156 164 173 163 169 171 164 166 168 166 167 168 170 169 165 169 172 173 166 173 163 169 165 166 171 175 167 151 151 152 149 156 138 150 162
210 224 230 235 249 257 257 257 256 261 271 275 268 279 287 270 270 284 273 132 7 141 262 273 267 263 264 261 257 250 248 249 246 247 255 256 259 261 262 257 258 151 153 151 156 160 170 168 165 162 167 174 173 172 171 169 166 165 169 172 171 173 171 172 169 168 170 169 163 161 162 160 159 155 151 156 163 152 142 154 152 159 149 146 160 156
251 232 237 246 253 253 259 240 250 270 262 251 264 267 253 262 283 290 130 231 179 195 240 247 278 273 273 265 260 256 253 251 246 246 253 253 257 258 254 254 248 196 163 166 166 174 174 169 169 165 172 174 167 166 168 169 171 168 175 175 174 176 174 172 171 168 164 161 156 150 152 148 145 152 143 131 138 138 142 162 162 167 153 157 166 163
236 232 193 223 236 238 245 238 214 228 257 227 222 238 257 258 247 240 258 191 205 226 257 316 273 268 247 261 253 248 241 247 251 247 249 256 260 255 260 268 229 176 171 173 174 176 167 172 182 181 174 164 173 178 178 174 177 178 179 178 176 176 175 172 167 165 156 136 116 106 91 96 95 96 119 126 146 164 166 160 168 177 162 164 163 161
253 243 90 219 210 220 226 245 209 205 263 259 212 212 241 253 267 269 284 344 349 302 150 215 316 266 218 221 239 251 216 225 236 230 236 238 254 264 260 251 230 183 177 179 183 181 180 180 175 173 174 179 185 185 186 179 179 173 178 174 174 172 173 173 169 165 156 154 149 145 143 148 149 160 167 177 177 178 179 184 164 166 165 160 159 162
252 183 203 219 203 221 223 240 222 170 253 273 251 217 248 262 265 275 294 20 270 246 284 28 35 295 167 249 240 264 192 221 231 222 237 229 240 257 257 258 207 185 184 192 183 173 169 179 177 183 187 190 189 192 177 176 180 177 175 174 174 174 174 173 171 166 157 159 165 169 170 169 172 171 190 177 169 168 171 163 163 161 159 160 161 165
185 133 120 169 215 229 236 257 233 202 247 262 159 276 97 280 263 252 235 194 251 322 273 148 148 273 290 238 222 226 220 220 227 233 239 245 227 241 254 258 211 189 184 183 185 182 183 181 183 187 193 190 195 176 174 179 180 180 179 174 174 173 175 175 171 169 169 167 171 172 175 173 177 179 173 176 175 165 158 159 155 154 161 165 164 165
188 173 185 212 202 205 224 231 202 176 199 234 256 100 100 123 195 54 218 251 250 337 278 152 159 278 267 290 194 185 222 233 234 233 239 250 243 227 235 256 219 192 192 179 177 183 184 187 191 189 188 192 175 177 184 186 182 177 175 173 172 174 176 175 174 171 176 176 176 176 174 177 184 172 167 162 152 146 148 145 154 157 165 166 168 167
331 179 221 201 157 222 220 55 58 198 213 249 170 72 95 98 64 186 221 284 313 282 260 164 172 227 277 268 186 204 200 209 220 223 232 240 244 243 227 232 230 189 186 185 184 182 185 184 186 182 165 167 189 182 178 177 173 179 176 177 177 178 179 173 176 174 179 179 174 180 182 178 174 165 152 149 151 150 150 153 162 164 163 165 165 166
231 179 12 190 206 223 101 82 84 26 101 134 129 87 26 319 224 22 162 165 342 248 255 179 193 172 274 301 167 141 207 205 209 228 233 246 253 256 230 215 200 184 173 177 179 171 173 172 163 154 169 180 174 179 175 181 183 181 184 181 183 181 174 172 177 175 182 181 182 184 182 179 172 165 156 152 159 155 156 164 168 169 171 168 167 163
226 92 137 249 47 92 119 59 9 209 23 132 120 159 335 309 31 12 317 107 194 271 242 183 188 184 234 288 293 194 185 196 188 199 207 227 241 244 242 221 192 168 163 162 154 160 150 143 156 158 169 173 179 174 182 186 184 185 187 184 182 183 179 176 177 179 184 185 187 186 182 181 178 169 168 169 170 171 170 170 169 168 164 167 159 158
242 235 205 45 250 153 169 126 353 13 149 171 135 122 163 259 54 279 73 280 203 247 176 175 173 242 231 242 192 241 208 207 205 204 198 209 226 235 223 184 154 149 146 159 164 158 162 169 173 177 176 172 179 187 187 187 186 185 186 187 186 189 181 179 178 183 185 186 190 187 184 183 179 180 178 175 172 173 170 167 166 167 168 159 156 163
273 240 185 206 31 224 137 193 191 312 216 158 163 168 140 247 229 258 241 224 269 254 255 202 179 224 267 266 201 235 220 202 202 208 198 192 223 233 195 164 147 155 161 170 173 175 175 179 184 183 179 183 186 189 188 186 186 187 190 191 192 192 183 177 181 184 186 191 188 185 183 183 181 183 179 180 174 174 171 169 168 168 166 165 167 162
297 293 223 134 244 167 188 205 203 192 154 198 182 146 196 188 203 251 221 244 246 265 337 203 92 234 107 235 182 206 223 219 204 206 206 217 219 220 163 155 148 156 175 174 179 186 183 186 187 190 188 188 190 188 187 189 191 187 193 193 195 189 189 183 186 184 189 188 186 184 183 180 182 177 178 179 175 167 167 168 162 161 160 158 161 158
225 245 243 178 169 154 187 217 203 97 119 212 178 198 295 229 149 231 242 252 279 333 299 190 214 246 256 347 215 215 218 225 222 211 197 233 229 186 142 171 189 190 187 186 187 194 197 190 187 195 199 197 192 190 190 192 190 193 198 197 197 193 188 186 183 191 190 188 183 184 183 184 179 172 166 169 171 170 164 162 161 162 160 154 146 144
340 261 153 156 23 174 199 151 201 156 214 214 129 198 211 118 185 255 287 276 316 310 262 244 273 261 313 271 240 235 219 215 211 209 207 226 229 213 196 211 207 200 190 192 192 195 200 194 197 199 200 197 194 194 196 195 193 197 195 198 200 197 192 189 189 189 188 186 184 190 184 180 181 177 176 174 171 167 163 156 157 156 157 147 144 143
212 255 103 167 223 302 328 294 325 327 122 97 201 234 96 14 108 160 239 341 220 235 272 286 266 290 306 291 68 186 208 206 194 196 209 218 223 202 212 218 217 206 203 194 198 202 198 198 200 199 202 202 201 201 199 201 198 200 202 201 198 194 194 194 187 187 187 187 189 186 188 187 184 180 177 170 167 162 156 155 150 145 149 160 154 145
202 263 244 212 42 339 343 9 307 195 33 154 195 340 131 249 269 245 113 249 257 251 266 271 281 269 259 264 283 308 201 204 201 204 209 219 213 202 220 234 245 203 172 190 199 198 203 205 205 203 203 200 198 198 204 205 199 199 203 205 203 204 200 192 186 184 185 188 190 188 188 185 183 180 174 168 161 159 161 161 159 159 157 147 148 145
98 233 254 327 95 68 11 150 214 197 318 132 26 334 165 83 220 146 196 206 167 256 272 274 284 275 259 245 269 227 195 190 198 204 207 214 202 206 211 229 236 196 201 203 201 204 208 208 207 204 197 196 201 197 194 194 198 209 207 201 207 209 205 194 188 183 186 190 185 187 182 186 182 177 173 167 162 165 166 164 160 156 155 160 148 148
245 154 253 96 298 39 252 181 210 169 187 232 243 274 302 184 241 103 296 207 206 231 226 265 274 272 264 152 217 215 184 188 191 204 214 220 221 205 208 214 223 213 217 213 206 211 208 210 211 207 204 202 189 186 188 197 204 208 203 208 205 200 199 197 196 184 189 180 188 181 186 183 177 176 170 163 164 161 163 161 159 159 154 140 151 146
229 190 235 102 305 202 235 152 202 211 192 195 188 211 206 192 211 235 251 213 235 218 235 234 254 266 268 51 99 139 188 178 204 190 190 218 217 218 221 222 217 222 217 215 220 209 209 215 209 204 191 188 187 196 196 196 190 196 203 207 208 205 201 201 195 194 186 183 183 185 183 178 174 171 168 164 163 161 160 159 158 153 146 150 150 146
183 171 216 226 223 249 236 239 215 222 266 247 202 234 210 210 198 207 243 232 261 245 255 239 263 254 250 55 48 81 135 143 169 147 169 187 208 226 228 219 220 214 216 214 213 218 212 204 201 196 191 187 192 199 205 198 199 203 204 200 203 205 207 199 198 193 183 181 182 184 177 170 174 171 170 167 167 163 160 157 153 151 147 146 147 143
79 115 203 252 287 336 304 302 93 29 208 305 272 244 191 220 215 230 241 233 247 214 214 237 241 255 269 114 221 168 176 164 217 248 260 257 248 239 231 232 230 237 239 236 230 218 209 201 192 180 188 194 196 197 199 200 202 200 201 204 204 211 211 198 190 188 184 184 182 176 171 176 171 171 173 173 171 164 160 155 152 148 144 142 142 145
229 283 212 258 261 297 292 304 282 103 88 205 226 238 244 254 246 244 263 90 255 228 244 249 249 254 270 213 216 231 244 255 257 257 216 251 260 232 238 242 240 234 233 233 231 225 208 191 189 196 196 199 205 207 202 201 202 199 200 197 204 211 209 204 192 187 187 182 178 177 177 176 173 175 175 174 168 164 157 154 149 147 145 140 141 143
257 319 2 221 226 239 245 244 246 249 220 230 230 239 239 233 234 259 247 229 248 228 236 243 259 256 267 274 268 267 266 271 276 280 277 212 230 250 243 243 241 233 231 227 233 229 206 205 202 198 204 209 208 202 201 204 204 203 199 200 198 199 194 203 196 193 186 182 178 180 180 177 175 179 177 170 166 162 157 152 148 144 140 141 141 141
239 197 208 212 230 232 237 248 264 278 306 219 237 230 240 241 244 240 248 248 244 248 242 244 255 266 266 275 276 275 272 276 284 287 287 283 274 268 257 241 235 231 226 226 223 221 216 216 214 211 210 210 208 204 203 200 202 201 200 199 194 194 190 188 192 194 190 185 184 179 182 181 181 175 172 169 163 157 153 150 145 142 143 142 143 148
135 222 209 225 227 235 237 243 250 256 257 255 254 253 233 223 232 235 233 245 244 258 255 240 254 259 258 261 266 274 278 278 278 283 286 280 276 272 246 236 240 242 239 234 237 224 215 217 215 215 218 215 216 208 206 205 202 198 197 198 191 185 185 185 187 190 190 186 186 186 184 181 172 168 166 161 155 153 150 144 141 138 134 136 144 149
182 228 223 221 234 231 233 239 242 249 248 248 244 246 251 249 237 234 238 240 237 238 253 250 250 255 253 247 257 263 270 282 288 284 281 283 289 282 254 244 245 233 229 221 226 225 223 225 221 221 223 221 213 206 208 205 202 197 201 196 187 187 190 178 179 185 187 188 190 188 178 165 164 161 159 156 152 150 148 143 137 134 133 135 138 136
214 228 230 219 236 231 233 237 240 245 250 251 249 246 247 249 248 237 237 236 234 242 247 250 247 248 252 259 252 258 275 281 282 283 284 283 279 278 275 249 257 238 220 224 227 227 227 230 231 227 225 223 211 211 207 203 201 198 195 193 189 188 182 168 184 183 186 190 189 177 166 162 160 161 158 154 154 149 144 141 138 136 135 128 131 132
205 228 202 229 238 239 233 238 239 243 242 251 253 252 247 250 253 242 239 246 255 253 250 249 250 258 260 256 261 272 270 276 281 278 273 272 275 275 275 269 237 236 219 227 229 227 231 234 233 233 228 224 216 212 208 205 203 198 195 191 188 186 181 176 179 185 185 187 176 165 159 161 163 158 159 153 146 145 144 141 139 135 131 133 135 138
191 246 226 232 245 242 224 234 234 236 236 241 248 257 259 247 244 244 245 237 232 244 245 250 255 253 250 253 267 268 272 268 265 265 269 271 268 271 272 273 252 241 248 247 235 224 229 231 229 227 225 223 219 214 208 205 198 190 197 190 189 183 170 175 178 180 181 173 163 163 163 162 156 156 154 150 151 148 142 135 136 135 136 139 140 144
195 205 215 225 242 243 224 227 235 241 243 242 235 239 242 244 245 254 254 259 253 246 247 242 242 242 257 261 262 265 261 256 257 259 264 266 268 267 269 269 266 245 244 252 250 235 228 230 229 225 223 221 218 213 210 200 190 196 196 189 185 160 170 176 175 173 171 168 164 164 162 157 157 155 153 155 148 143 137 139 133 136 142 145 139 140
205 219 230 206 245 248 225 240 235 241 225 224 202 221 224 238 240 243 241 239 241 237 245 243 256 259 260 256 255 257 260 259 255 254 251 255 267 269 269 267 263 256 243 244 246 244 232 225 228 228 221 216 214 210 208 191 193 199 186 171 156 166 170 170 174 171 171 166 167 165 163 160 160 160 157 151 149 148 145 138 134 128 126 132 142 153
213 218 236 209 245 243 233 238 243 231 236 220 212 215 224 234 242 246 249 244 249 251 254 254 255 259 265 261 254 253 255 260 262 259 257 249 247 256 272 272 269 260 256 261 263 255 247 232 224 226 230 227 218 212 187 185 188 153 151 160 163 166 167 174 170 172 170 170 170 166 165 164 163 160 157 155 153 145 134 133 132 140 148 152 156 159
221 215 226 229 229 255 231 215 243 249 184 260 206 211 214 236 240 250 254 247 246 243 247 255 252 248 246 250 253 254 254 256 259 263 266 260 254 251 253 258 262 270 268 264 263 263 263 249 226 222 227 223 206 189 179 183 166 160 166 159 165 167 171 170 172 174 172 175 174 172 170 166 166 162 159 155 137 137 144 142 146 148 147 143 141 145
224 230 217 252 200 241 227 223 239 270 283 121 137 207 196 221 217 217 242 238 233 237 236 244 247 249 249 249 250 255 258 258 262 268 265 264 259 250 246 252 258 259 262 266 265 262 260 254 225 224 221 196 183 174 184 161 158 155 152 162 170 169 170 172 178 181 180 179 175 174 172 169 164 161 156 136 140 141 141 147 143 140 141 143 151 157
216 228 217 239 223 216 241 238 249 226 236 224 209 206 225 235 240 238 238 263 202 251 231 240 244 244 246 248 250 251 253 265 266 263 257 258 257 264 264 261 248 248 250 254 262 262 261 259 237 217 196 186 184 182 161 157 157 156 161 168 166 170 176 178 188 184 181 181 177 173 170 168 162 159 158 156 152 144 143 136 132 142 149 148 152 158
222 221 226 222 236 214 234 242 234 240 249 151 220 220 230 229 233 248 269 264 172 241 237 238 238 237 241 245 249 252 255 250 252 255 260 260 263 259 261 264 246 231 234 238 243 255 259 250 230 190 168 164 181 177 157 156 155 156 170 169 172 175 178 191 190 185 184 178 170 168 167 165 163 160 159 162 160 155 146 146 147 144 137 140 141 148
228 222 225 233 233 222 241 240 242 229 257 190 187 212 225 232 237 278 263 278 168 216 228 238 247 253 254 250 251 253 247 257 255 257 259 270 278 282 274 256 255 249 243 245 248 242 249 216 122 142 170 191 194 158 158 157 162 170 171 177 170 179 192 197 192 175 163 161 162 162 162 165 165 162 159 157 152 149 132 132 129 142 144 144 135 135
225 224 213 232 225 225 225 245 250 260 232 179 199 205 213 213 206 231 250 313 360 335 328 319 315 333 345 347 348 329 336 331 331 332 341 341 339 325 314 304 275 267 264 261 261 253 180 184 185 193 202 199 154 154 156 159 162 180 178 169 175 197 202 182 160 163 161 157 158 161 163 164 167 160 159 153 151 143 130 138 141 136 136 137 138 143
264 249 254 229 234 233 229 238 243 258 247 252 221 199 169 67 253 247 3 354 8 12 0 15 14 10 6 2 351 341 323 327 338 353 352 350 347 342 343 343 345 339 321 324 343 354 342 1 296 299 344 92 142 152 160 163 177 175 169 174 199 205 158 156 162 155 157 160 159 159 159 160 160 158 152 149 142 143 131 124 125 130 128 124 138 147
288 272 222 216 245 237 231 258 243 233 41 18 341 287 168 243 25 343 301 341 6 25 11 0 4 358 1 344 341 334 333 335 335 339 339 338 342 337 336 338 344 350 345 341 332 343 8 333 324 306 299 118 146 157 166 167 176 179 179 199 208 157 155 155 156 156 157 157 158 159 158 157 157 153 149 142 147 139 132 134 126 126 127 138 138 137
293 266 294 311 346 303 254 233 223 59 327 10 31 349 345 309 328 330 333 310 1 21 8 357 342 347 346 339 333 332 330 329 326 332 333 332 333 329 326 325 330 338 339 327 290 274 248 253 246 249 220 154 160 170 170 176 181 185 192 211 156 151 148 154 155 155 158 160 159 154 154 152 151 134 146 134 133 120 129 134 130 128 141 137 138 140
144 127 259 278 315 314 292 321 313 319 309 273 109 231 296 312 309 272 339 1 348 350 350 338 329 326 335 334 323 322 321 323 320 320 319 316 315 314 311 311 313 314 309 305 299 256 210 232 246 240 224 198 181 185 184 185 189 191 205 194 144 157 158 155 156 158 163 163 162 157 151 148 151 146 130 147 138 133 129 134 136 134 145 141 147 149
328 316 306 312 268 292 284 270 281 312 311 315 308 299 312 313 311 32 7 340 331 303 330 315 309 314 313 318 317 315 311 309 311 309 307 306 303 299 295 296 297 296 289 280 264 224 221 224 229 222 226 221 201 198 196 199 191 196 207 147 157 155 156 154 157 163 165 166 159 152 148 144 149 151 144 141 122 118 138 142 147 140 146 150 149 155
290 309 305 276 305 321 288 315 294 303 304 307 305 308 320 316 7 358 325 319 306 303 301 302 297 305 311 310 311 301 298 300 301 299 298 299 299 298 299 297 295 292 289 283 268 236 209 206 219 225 222 225 207 205 208 201 207 204 147 167 160 158 155 159 161 160 158 160 158 147 149 137 145 138 135 136 126 120 116 129 134 136 142 153 154 154
288 336 297 290 289 263 278 287 296 298 284 279 282 300 318 327 315 305 308 306 308 311 311 314 323 313 314 308 306 302 297 296 294 296 298 299 300 302 301 299 298 298 289 268 264 227 220 217 221 228 226 232 219 204 210 207 207 189 165 163 164 158 157 160 166 165 166 163 162 165 166 149 136 136 140 143 142 142 142 145 150 150 159 164 164 159
289 306 277 313 292 292 284 277 267 290 307 299 300 1 330 322 321 314 314 314 311 323 323 317 316 315 312 308 310 314 311 305 303 303 303 301 300 299 299 300 299 294 290 287 258 212 220 224 228 230 226 232 217 198 205 212 205 178 171 170 164 161 162 167 164 158 158 161 161 167 170 165 163 153 141 144 124 110 151 154 161 158 155 162 158 160
271 261 280 294 291 289 295 318 347 325 309 306 300 301 312 323 324 335 344 342 341 334 333 326 319 311 306 311 319 318 313 309 309 311 307 306 305 307 307 306 305 303 299 290 276 238 236 233 231 231 228 233 209 195 204 207 200 185 176 168 169 165 165 164 162 161 166 166 169 167 167 168 163 155 146 142 150 145 137 141 146 151 150 150 162 162
267 275 288 282 289 289 302 301 298 288 289 291 307 327 351 15 2 340 328 327 329 331 330 325 320 322 321 315 311 310 306 305 305 306 302 300 297 296 296 298 298 296 294 293 291 280 248 242 237 234 238 235 206 204 207 204 193 181 177 174 174 172 169 161 165 172 170 169 175 175 171 166 154 155 144 141 129 133 135 138 146 152 147 148 158 163